Aniak, AK

3:52 AM AKST on December 06, 2016 (GMT -0900)
Aniak

Weather History for PANI - March, 2013

Change the Weather History Date:

Monday, March 25, 2013

  Actual Average Record
Temperature  
Mean Temperature -14 °F -  
Max Temperature -2 °F 21 °F 42 °F (1999)
Min Temperature -27 °F 5 °F -27 °F (2013)
Degree Days  
Heating Degree Days 80    
Moisture  
Dew Point -22 °F    
Average Humidity 57    
Maximum Humidity 92    
Minimum Humidity 22    
Precipitation  
Precipitation 0.00 in - - ()
Sea Level Pressure  
Sea Level Pressure 30.05 in    
Wind  
Wind Speed 4 mph (WSW)    
Max Wind Speed 10 mph    
Max Gust Speed 16 mph    
Visibility 10 miles    
Events      
Averages and records for this station are not official NWS values.
T = Trace of Precipitation, MM = Missing Value Source: NWS Daily Summary

Daily Weather History Graph

Daily Weather History Graph

Search for Another Location

Airport or City:

Trip Planner

Search our weather history database for the weather conditions in past years. The results will help you decide how hot, cold, wet, or windy it might be!

Date:

Astronomy

Mar. 25, 2013 Rise Set
Actual Time 8:21 AM AKDT 9:07 PM AKDT
Civil Twilight 7:37 AM AKDT 9:52 PM AKDT
Nautical Twilight 6:43 AM AKDT 10:46 PM AKDT
Astronomical Twilight 5:41 AM AKDT 11:49 PM AKDT
Moon 7:40 PM AKDT (3/25) 7:31 AM AKDT (3/25)
Length of Visible Light 14h 14m
Length of Day
12h 45m
Waxing Gibbous, 97% of the Moon is Illuminated
Mar 25
Waxing Gibbous
Mar 27
Full
Apr 2
Last Quarter
Apr 10
New
Apr 18
First Quarter

Hourly Weather History & Observations

Time (AKDT) Temp. Windchill Dew Point Humidity Pressure Visibility Wind Dir Wind Speed Gust Speed Precip Events Conditions
12:16 AM -9.4 °F -18.6 °F -20.2 °F 59% 30.02 in 10.0 mi West 3.5 mph - N/A   Clear
12:36 AM -11.2 °F -20.6 °F -20.2 °F 64% 30.02 in 10.0 mi West 3.5 mph - N/A   Clear
12:56 AM -11.2 °F -20.6 °F -29.2 °F 41% 30.02 in 10.0 mi West 3.5 mph - N/A   Partly Cloudy
1:16 AM -11.2 °F -20.6 °F -18.4 °F 70% 30.02 in 10.0 mi West 3.5 mph - N/A   Partly Cloudy
1:36 AM -14.8 °F - -29.2 °F 48% 30.02 in 10.0 mi Calm Calm - N/A   Scattered Clouds
1:56 AM -16.6 °F - - N/A% 30.02 in 5.0 mi Calm Calm - N/A   Overcast
2:16 AM -13.0 °F - -14.8 °F 92% 30.02 in 2.5 mi Calm Calm - N/A   Mostly Cloudy
2:36 AM -13.0 °F -22.7 °F - N/A% 30.02 in 4.0 mi WSW 3.5 mph - N/A   Overcast
2:56 AM -13.0 °F -22.7 °F - N/A% 30.02 in 10.0 mi WSW 3.5 mph - N/A   Overcast
3:16 AM -13.0 °F - - N/A% 30.02 in 5.0 mi Calm Calm - N/A   Overcast
3:36 AM -13.0 °F -22.7 °F - N/A% 30.03 in 3.0 mi SW 3.5 mph - N/A   Overcast
4:36 AM -13.0 °F -25.1 °F -27.4 °F 49% 30.02 in 10.0 mi SW 4.6 mph - N/A   Mostly Cloudy
4:56 AM -14.8 °F - -27.4 °F 53% 30.03 in 10.0 mi Calm Calm - N/A   Scattered Clouds
5:16 AM -16.6 °F - - N/A% 30.03 in 10.0 mi Calm Calm - N/A   Clear
5:36 AM -18.4 °F - - N/A% 30.03 in 10.0 mi Calm Calm - N/A   Clear
5:56 AM -20.2 °F - - N/A% 30.03 in 10.0 mi Calm Calm - N/A   Mostly Cloudy
6:16 AM -20.2 °F - - N/A% 30.03 in 8.0 mi Calm Calm - N/A   Overcast
6:36 AM -20.2 °F - - N/A% 30.03 in 10.0 mi Calm Calm - N/A   Mostly Cloudy
6:56 AM -20.2 °F -30.9 °F - N/A% 30.03 in 10.0 mi West 3.5 mph - N/A   Partly Cloudy
7:16 AM -23.8 °F - - N/A% 30.03 in 10.0 mi Calm Calm - N/A   Clear
7:36 AM -23.8 °F - - N/A% 30.03 in 10.0 mi Calm Calm - N/A   Clear
7:56 AM -25.6 °F - - N/A% 30.03 in 10.0 mi Calm Calm - N/A   Clear
8:16 AM -25.6 °F - - N/A% 30.03 in 10.0 mi Calm Calm - N/A   Clear
8:36 AM -27.4 °F - - N/A% 30.03 in 9.0 mi Calm Calm - N/A   Partly Cloudy
8:56 AM -23.8 °F - - N/A% 30.03 in 10.0 mi Calm Calm - N/A   Mostly Cloudy
9:16 AM -23.8 °F -37.7 °F -27.4 °F 83% 30.03 in 10.0 mi West 4.6 mph - N/A   Partly Cloudy
9:36 AM -20.2 °F -30.9 °F -29.2 °F 63% 30.03 in 10.0 mi West 3.5 mph - N/A   Clear
9:56 AM -20.2 °F -30.9 °F -25.6 °F 76% 30.03 in 10.0 mi West 3.5 mph - N/A   Clear
10:16 AM -18.4 °F - -23.8 °F 76% 30.04 in 10.0 mi Calm Calm - N/A   Clear
10:36 AM -16.6 °F -32.9 °F -25.6 °F 64% 30.04 in 10.0 mi WSW 6.9 mph - N/A   Clear
10:56 AM -16.6 °F -35.7 °F -22.0 °F 76% 30.04 in 10.0 mi West 9.2 mph - N/A   Clear
11:16 AM -14.8 °F -24.8 °F -23.8 °F 64% 30.04 in 10.0 mi WSW 3.5 mph - N/A   Clear
11:36 AM -13.0 °F -30.0 °F -18.4 °F 77% 30.05 in 10.0 mi WSW 8.1 mph - N/A   Clear
11:56 AM -11.2 °F -26.4 °F -23.8 °F 54% 30.05 in 10.0 mi West 6.9 mph - N/A   Clear
12:16 PM -11.2 °F -23.0 °F -23.8 °F 54% 30.05 in 10.0 mi SSW 4.6 mph - N/A   Clear
12:36 PM -11.2 °F -26.4 °F -16.6 °F 77% 30.05 in 10.0 mi West 6.9 mph - N/A   Clear
12:56 PM -9.4 °F -22.7 °F -27.4 °F 41% 30.05 in 10.0 mi WSW 5.8 mph - N/A   Clear
1:16 PM -9.4 °F -22.7 °F -20.2 °F 59% 30.06 in 10.0 mi WSW 5.8 mph - N/A   Clear
1:36 PM -9.4 °F -24.3 °F -18.4 °F 65% 30.05 in 10.0 mi SW 6.9 mph 16.1 mph N/A   Clear
1:56 PM -9.4 °F -24.3 °F -27.4 °F 41% 30.06 in 10.0 mi WSW 6.9 mph - N/A   Clear
2:16 PM -7.6 °F -23.4 °F -20.2 °F 54% 30.05 in 10.0 mi WSW 8.1 mph - N/A   Clear
2:36 PM -7.6 °F -22.1 °F -20.2 °F 54% 30.06 in 10.0 mi WSW 6.9 mph - N/A   Clear
2:56 PM -7.6 °F -23.4 °F -25.6 °F 41% 30.06 in 10.0 mi WSW 8.1 mph - N/A   Clear
3:16 PM -7.6 °F -22.1 °F -18.4 °F 59% 30.06 in 10.0 mi WSW 6.9 mph - N/A   Clear
3:36 PM -7.6 °F -22.1 °F -20.2 °F 54% 30.06 in 10.0 mi West 6.9 mph - N/A   Clear
3:56 PM -5.8 °F -23.4 °F -22.0 °F 46% 30.06 in 10.0 mi West 10.4 mph - N/A   Clear
4:16 PM -5.8 °F -21.2 °F -16.6 °F 60% 30.06 in 10.0 mi WSW 8.1 mph - N/A   Clear
4:36 PM -5.8 °F -22.4 °F -22.0 °F 46% 30.06 in 10.0 mi West 9.2 mph 16.1 mph N/A   Clear
4:56 PM -4.0 °F -20.2 °F -18.4 °F 50% 30.06 in 10.0 mi West 9.2 mph - N/A   Clear
5:16 PM -4.0 °F -17.8 °F -14.8 °F 60% 30.06 in 10.0 mi SW 6.9 mph - N/A   Clear
5:36 PM -4.0 °F -17.8 °F -23.8 °F 38% 30.06 in 10.0 mi SSW 6.9 mph - N/A   Clear
5:56 PM -4.0 °F -21.2 °F -11.2 °F 71% 30.06 in 10.0 mi WSW 10.4 mph - N/A   Partly Cloudy
6:16 PM -4.0 °F -19.0 °F -23.8 °F 38% 30.07 in 7.0 mi WSW 8.1 mph - N/A   Mostly Cloudy
6:36 PM -5.8 °F -18.4 °F -22.0 °F 46% 30.07 in 10.0 mi WSW 5.8 mph - N/A   Overcast
6:56 PM -5.8 °F -16.7 °F -11.2 °F 77% 30.07 in 10.0 mi SSW 4.6 mph - N/A   Partly Cloudy
7:16 PM -4.0 °F -20.2 °F -22.0 °F 42% 30.07 in 10.0 mi WSW 9.2 mph - N/A   Clear
7:36 PM -5.8 °F -18.4 °F -20.2 °F 50% 30.07 in 10.0 mi SW 5.8 mph - N/A   Clear
7:56 PM -5.8 °F -19.9 °F -11.2 °F 77% 30.08 in 10.0 mi SW 6.9 mph - N/A   Clear
8:16 PM -5.8 °F -16.7 °F -25.6 °F 38% 30.08 in 10.0 mi WSW 4.6 mph - N/A   Clear
8:36 PM -7.6 °F -18.8 °F -16.6 °F 65% 30.09 in 10.0 mi WSW 4.6 mph - N/A   Clear
8:56 PM -7.6 °F -18.8 °F -18.4 °F 59% 30.09 in 10.0 mi WSW 4.6 mph - N/A   Clear
9:16 PM -9.4 °F -24.3 °F -27.4 °F 41% 30.10 in 10.0 mi WSW 6.9 mph - N/A   Clear
9:36 PM -9.4 °F -20.9 °F -14.8 °F 77% 30.10 in 10.0 mi WSW 4.6 mph - N/A   Clear
9:56 PM -9.4 °F -18.6 °F -27.4 °F 41% 30.10 in 10.0 mi WSW 3.5 mph - N/A   Clear
10:16 PM -11.2 °F -23.0 °F -25.6 °F 49% 30.11 in 10.0 mi WSW 4.6 mph - N/A   Clear
10:36 PM -11.2 °F -23.0 °F - N/A% 30.11 in 10.0 mi West 4.6 mph - N/A   Clear
10:56 PM -11.2 °F -20.6 °F - N/A% 30.11 in 10.0 mi West 3.5 mph - N/A   Clear
11:16 PM -11.2 °F - - N/A% 30.12 in 10.0 mi Calm Calm - N/A   Clear
11:36 PM -14.8 °F - - N/A% 30.12 in 10.0 mi Calm Calm - N/A   Clear
11:56 PM -16.6 °F - - N/A% 30.12 in 10.0 mi Calm Calm - N/A   Clear